This is the latest recevied weather packets stored in our database for station/object IU5JAE-13. If no packets are shown the sender has not sent any weather packets the latest 10 day(s).
| Time | Temp. | Humidity | Pressure | Rain* | Wind** | Luminosity | Snow |
|---|---|---|---|---|---|---|---|
| 1778054133 | 12.78° C | 99% | 1009.8 hPa | 1.52 mm | - | 20 W/m² | - |
| 1778053530 | 12.78° C | 99% | 1009.8 hPa | 4.57 mm | - | 23 W/m² | - |
| 1778052928 | 12.78° C | 99% | 1009.9 hPa | 6.35 mm | - | 18 W/m² | - |
| 1778052326 | 12.78° C | 99% | 1009.9 hPa | 7.11 mm | - | 13 W/m² | - |
| 1778051723 | 12.78° C | 99% | 1009.8 hPa | 9.91 mm | - | 9 W/m² | - |
| 1778051121 | 12.78° C | 99% | 1009.7 hPa | 11.18 mm | - | 12 W/m² | - |
| 1778050518 | 12.22° C | 99% | 1009.7 hPa | 10.16 mm | - | 22 W/m² | - |
| 1778049916 | 12.22° C | 99% | 1009.6 hPa | 7.11 mm | - | 24 W/m² | - |
| 1778049333 | 12.22° C | 99% | 1009.3 hPa | 5.33 mm | - | 44 W/m² | - |
| 1778048731 | 12.22° C | 99% | 1009.4 hPa | 5.33 mm | - | 11 W/m² | - |
| 1778048129 | 12.22° C | 99% | 1009.6 hPa | 3.3 mm | - | 12 W/m² | - |
| 1778047526 | 12.22° C | 99% | 1009.4 hPa | 3.05 mm | - | 15 W/m² | - |
| 1778046924 | 12.22° C | 99% | 1009.5 hPa | 3.05 mm | - | 18 W/m² | - |
| 1778046321 | 11.67° C | 99% | 1009.7 hPa | 4.06 mm | - | 24 W/m² | - |
| 1778045719 | 11.67° C | 99% | 1009.6 hPa | 4.57 mm | - | 3 W/m² | - |
| 1778045116 | 11.67° C | 99% | 1009.6 hPa | 4.32 mm | - | 5 W/m² | - |
| 1778044534 | 11.67° C | 99% | 1009.7 hPa | 3.81 mm | - | 6 W/m² | - |
| 1778043932 | 11.67° C | 99% | 1009.7 hPa | 3.3 mm | - | 2 W/m² | - |
| 1778043329 | 11.67° C | 99% | 1009.6 hPa | 4.32 mm | - | 6 W/m² | - |
| 1778042727 | 12.22° C | 99% | 1009.6 hPa | 3.81 mm | - | 3 W/m² | - |
| 1778042124 | 12.22° C | 99% | 1009.7 hPa | 3.3 mm | - | 3 W/m² | - |
| 1778041522 | 12.22° C | 99% | 1009.7 hPa | 2.79 mm | - | 1 W/m² | - |
| 1778040920 | 12.22° C | 99% | 1009.6 hPa | 2.79 mm | - | 1 W/m² | - |
| 1778040317 | 12.22° C | 99% | 1009.7 hPa | 2.54 mm | - | 0 W/m² | - |
| 1778039735 | 12.22° C | 99% | 1009.7 hPa | 1.52 mm | - | 0 W/m² | - |
* Rain latest hour (hover to see other rain measurements)
** Current wind speed in m/s (hover to see current wind gust speed)